Weather in Antequera

Spain     37°01′19″N   4°33′34″W
temp.,
°C
wind,
m/s
gust,
m/s
humid.,
%
clouds,
%
prec.,
mm/h
press.,
hPa
HPBL,
m
27 september, mon
mon2723:00+20n114571 0.0 102111
02:00+19sse0048100 0.0 102111
05:00+18e115096 0.0 102111
08:00+17ne1151100 0.0 102111
11:00+22nnw1139100 0.0 1022311
14:00+26wnw2127100 0.0 10211116
17:00+27wnw2223100 0.0 10201515
20:00+23nnw123340 0.0 102027
28 september, tue
tue2823:00+20nne114084 0.0 102211
02:00+19e114297 0.0 102111
05:00+18ene114498 0.0 102011
08:00+17ne11466 0.0 102111
11:00+22nw113490 0.0 1021385
14:00+26wsw232413 0.0 10201533
17:00+27w22227 0.0 10191938
20:00+23nw23337 0.0 102071
29 september, wed
wed2923:00+21nne11350 0.0 102212
02:00+19nne22370 0.0 102211
05:00+18ne12410 0.0 102212
08:00+17ne22420 0.0 102211
11:00+23sse11290 0.0 1023390
14:00+27ssw33210 0.0 10221391
17:00+27s442710 0.0 10211358
20:00+22s33425 0.0 102242
30 september, thu
thu3023:00+19sse225229 0.0 102437
02:00+17sse335599 0.0 102451
05:00+16sse3366100 0.0 102450
08:00+15sse22715 0.0 102431
11:00+21s34545 0.0 1024524
14:00+24s454078 0.0 10231014
17:00+24s43435 0.0 1022899
20:00+20s33578 0.0 102262
1 october, fri
fri123:00+18sse33767 0.0 102455
02:00+16sse339052 0.0 102361
05:00+16sse239527 0.0 102273
08:00+16sse2395100 0.0 1022110
11:00+19s3473100 0.0 1023578
14:00+23s4454100 0.0 1022944
17:00+23s335315 0.0 1021854
20:00+20s22665 0.0 102141